Time,TemperatureF,DewpointF,PressureIn,WindDirection,WindDirectionDegrees,WindSpeedMPH,WindSpeedGustMPH,Humidity,HourlyPrecipIn,Conditions,Clouds,dailyrainin,SoftwareType,DateUTC
2013-05-05 00:03:00,58.0,-99.9,30.05,NE,51,15.0,23.0,-999,-99.99,,,-99.99,,2013-05-05 04:03:00,
2013-05-05 00:13:00,58.0,-99.9,30.05,NE,52,14.0,21.0,-999,-99.99,,,-99.99,,2013-05-05 04:13:00,
2013-05-05 00:23:00,58.0,-99.9,30.05,NE,50,16.0,22.0,-999,-99.99,,,-99.99,,2013-05-05 04:23:00,
2013-05-05 00:33:00,58.0,-99.9,30.05,NE,53,16.0,22.0,-999,-99.99,,,-99.99,,2013-05-05 04:33:00,
2013-05-05 00:43:00,58.0,-99.9,30.05,NE,51,14.0,24.0,-999,-99.99,,,-99.99,,2013-05-05 04:43:00,
2013-05-05 00:53:00,58.0,-99.9,30.05,NE,55,15.0,23.0,-999,-99.99,,,-99.99,,2013-05-05 04:53:00,
2013-05-05 01:02:00,58.0,-99.9,30.04,NE,52,16.0,27.0,-999,-99.99,,,-99.99,,2013-05-05 05:02:00,
2013-05-05 01:12:00,58.0,-99.9,30.04,ENE,62,17.0,23.0,-999,-99.99,,,-99.99,,2013-05-05 05:12:00,
2013-05-05 01:22:00,58.0,-99.9,30.04,ENE,62,19.0,26.0,-999,-99.99,,,-99.99,,2013-05-05 05:22:00,
2013-05-05 01:32:00,57.0,-99.9,30.04,ENE,60,15.0,22.0,-999,-99.99,,,-99.99,,2013-05-05 05:32:00,
2013-05-05 01:42:00,58.0,-99.9,30.04,ENE,58,13.0,21.0,-999,-99.99,,,-99.99,,2013-05-05 05:42:00,
2013-05-05 01:52:00,57.0,-99.9,30.03,ENE,58,15.0,21.0,-999,-99.99,,,-99.99,,2013-05-05 05:52:00,
2013-05-05 02:02:00,57.0,-99.9,30.03,NE,52,13.0,18.0,-999,-99.99,,,-99.99,,2013-05-05 06:02:00,
2013-05-05 02:12:00,57.0,-99.9,30.03,NE,48,12.0,17.0,-999,-99.99,,,-99.99,,2013-05-05 06:12:00,
2013-05-05 02:22:00,57.0,-99.9,30.02,NE,47,16.0,21.0,-999,-99.99,,,-99.99,,2013-05-05 06:22:00,
2013-05-05 02:32:00,58.0,-99.9,30.02,NE,53,14.0,19.0,-999,-99.99,,,-99.99,,2013-05-05 06:32:00,
2013-05-05 02:42:00,58.0,-99.9,30.02,ENE,59,14.0,20.0,-999,-99.99,,,-99.99,,2013-05-05 06:42:00,
2013-05-05 02:52:00,58.0,-99.9,30.01,NE,46,16.0,22.0,-999,-99.99,,,-99.99,,2013-05-05 06:52:00,
2013-05-05 03:01:00,58.0,-99.9,30.01,NE,50,11.0,21.0,-999,-99.99,,,-99.99,,2013-05-05 07:01:00,
2013-05-05 03:11:00,58.0,-99.9,30.00,ENE,58,14.0,19.0,-999,-99.99,,,-99.99,,2013-05-05 07:11:00,
2013-05-05 03:22:00,58.0,-99.9,30.00,NE,52,15.0,21.0,-999,-99.99,,,-99.99,,2013-05-05 07:22:00,
2013-05-05 03:32:00,57.0,-99.9,30.00,NE,51,13.0,19.0,-999,-99.99,,,-99.99,,2013-05-05 07:32:00,
2013-05-05 03:42:00,57.0,-99.9,30.00,NE,50,13.0,19.0,-999,-99.99,,,-99.99,,2013-05-05 07:42:00,
2013-05-05 03:52:00,57.0,-99.9,30.00,NE,51,15.0,20.0,-999,-99.99,,,-99.99,,2013-05-05 07:52:00,
2013-05-05 04:03:00,57.0,-99.9,30.00,NE,50,14.0,20.0,-999,-99.99,,,-99.99,,2013-05-05 08:03:00,
2013-05-05 04:11:00,57.0,-99.9,30.00,NE,48,15.0,19.0,-999,-99.99,,,-99.99,,2013-05-05 08:11:00,
2013-05-05 04:22:00,58.0,-99.9,30.00,NE,52,14.0,22.0,-999,-99.99,,,-99.99,,2013-05-05 08:22:00,
2013-05-05 04:32:00,58.0,-99.9,30.00,NE,49,13.0,19.0,-999,-99.99,,,-99.99,,2013-05-05 08:32:00,
2013-05-05 04:42:00,58.0,-99.9,29.99,NE,49,15.0,19.0,-999,-99.99,,,-99.99,,2013-05-05 08:42:00,
2013-05-05 04:53:00,58.0,-99.9,29.99,NE,47,16.0,21.0,-999,-99.99,,,-99.99,,2013-05-05 08:53:00,
2013-05-05 05:01:00,58.0,-99.9,29.99,NE,49,13.0,18.0,-999,-99.99,,,-99.99,,2013-05-05 09:01:00,
2013-05-05 05:11:00,58.0,-99.9,29.99,NE,52,14.0,22.0,-999,-99.99,,,-99.99,,2013-05-05 09:11:00,
2013-05-05 05:22:00,58.0,-99.9,30.00,NE,55,11.0,18.0,-999,-99.99,,,-99.99,,2013-05-05 09:22:00,
2013-05-05 05:33:00,58.0,-99.9,30.00,NE,56,12.0,19.0,-999,-99.99,,,-99.99,,2013-05-05 09:33:00,
2013-05-05 05:42:00,58.0,-99.9,30.00,NE,51,13.0,20.0,-999,-99.99,,,-99.99,,2013-05-05 09:42:00,
2013-05-05 05:53:00,58.0,-99.9,29.99,NE,47,14.0,18.0,-999,-99.99,,,-99.99,,2013-05-05 09:53:00,
2013-05-05 06:03:00,58.0,-99.9,29.99,NE,53,13.0,17.0,-999,-99.99,,,-99.99,,2013-05-05 10:03:00,
2013-05-05 06:12:00,58.0,-99.9,29.99,NE,52,10.0,16.0,-999,-99.99,,,-99.99,,2013-05-05 10:12:00,
2013-05-05 06:22:00,58.0,-99.9,29.99,NE,50,14.0,18.0,-999,-99.99,,,-99.99,,2013-05-05 10:22:00,
2013-05-05 06:32:00,58.0,-99.9,30.00,NE,54,10.0,16.0,-999,-99.99,,,-99.99,,2013-05-05 10:32:00,
2013-05-05 06:42:00,58.0,-99.9,30.00,ENE,58,12.0,17.0,-999,-99.99,,,-99.99,,2013-05-05 10:42:00,
2013-05-05 06:53:00,59.0,-99.9,30.00,NE,52,12.0,17.0,-999,-99.99,,,-99.99,,2013-05-05 10:53:00,
2013-05-05 07:02:00,59.0,-99.9,30.01,ENE,60,12.0,21.0,-999,-99.99,,,-99.99,,2013-05-05 11:02:00,
2013-05-05 07:12:00,59.0,-99.9,30.01,ENE,61,11.0,19.0,-999,-99.99,,,-99.99,,2013-05-05 11:12:00,
2013-05-05 07:22:00,59.0,-99.9,30.01,ENE,67,12.0,20.0,-999,-99.99,,,-99.99,,2013-05-05 11:22:00,
2013-05-05 07:32:00,59.0,-99.9,30.01,ENE,63,13.0,21.0,-999,-99.99,,,-99.99,,2013-05-05 11:32:00,
2013-05-05 07:42:00,58.0,-99.9,30.02,ENE,60,12.0,20.0,-999,-99.99,,,-99.99,,2013-05-05 11:42:00,
2013-05-05 07:52:00,58.0,-99.9,30.02,NE,52,10.0,17.0,-999,-99.99,,,-99.99,,2013-05-05 11:52:00,
2013-05-05 08:02:00,59.0,-99.9,30.02,ENE,59,11.0,18.0,-999,-99.99,,,-99.99,,2013-05-05 12:02:00,
2013-05-05 08:12:00,59.0,-99.9,30.02,ENE,58,13.0,18.0,-999,-99.99,,,-99.99,,2013-05-05 12:12:00,
2013-05-05 08:22:00,59.0,-99.9,30.03,ENE,62,14.0,19.0,-999,-99.99,,,-99.99,,2013-05-05 12:22:00,
2013-05-05 08:32:00,59.0,-99.9,30.03,ENE,61,10.0,16.0,-999,-99.99,,,-99.99,,2013-05-05 12:32:00,
2013-05-05 08:42:00,59.0,-99.9,30.03,ENE,60,11.0,16.0,-999,-99.99,,,-99.99,,2013-05-05 12:42:00,
2013-05-05 08:52:00,59.0,-99.9,30.03,NE,51,11.0,15.0,-999,-99.99,,,-99.99,,2013-05-05 12:52:00,
2013-05-05 09:01:00,60.0,-99.9,30.03,NE,55,13.0,18.0,-999,-99.99,,,-99.99,,2013-05-05 13:01:00,
2013-05-05 09:11:00,60.0,-99.9,30.03,ENE,57,12.0,18.0,-999,-99.99,,,-99.99,,2013-05-05 13:11:00,
2013-05-05 09:21:00,60.0,-99.9,30.03,ENE,62,11.0,17.0,-999,-99.99,,,-99.99,,2013-05-05 13:21:00,
2013-05-05 09:32:00,60.0,-99.9,30.03,ENE,61,13.0,17.0,-999,-99.99,,,-99.99,,2013-05-05 13:32:00,
2013-05-05 09:42:00,60.0,-99.9,30.03,ENE,63,13.0,19.0,-999,-99.99,,,-99.99,,2013-05-05 13:42:00,
2013-05-05 09:52:00,60.0,-99.9,30.04,ENE,68,12.0,18.0,-999,-99.99,,,-99.99,,2013-05-05 13:52:00,
2013-05-05 10:02:00,61.0,-99.9,30.04,ENE,65,13.0,19.0,-999,-99.99,,,-99.99,,2013-05-05 14:02:00,
2013-05-05 10:11:00,61.0,-99.9,30.03,ENE,66,15.0,21.0,-999,-99.99,,,-99.99,,2013-05-05 14:11:00,
2013-05-05 10:21:00,61.0,-99.9,30.04,ENE,65,14.0,22.0,-999,-99.99,,,-99.99,,2013-05-05 14:21:00,
2013-05-05 10:32:00,61.0,-99.9,30.04,ENE,67,16.0,20.0,-999,-99.99,,,-99.99,,2013-05-05 14:32:00,
2013-05-05 10:42:00,61.0,-99.9,30.04,ENE,63,13.0,19.0,-999,-99.99,,,-99.99,,2013-05-05 14:42:00,
2013-05-05 10:52:00,60.0,-99.9,30.04,ENE,59,13.0,19.0,-999,-99.99,,,-99.99,,2013-05-05 14:52:00,
2013-05-05 11:02:00,60.0,-99.9,30.04,ENE,61,13.0,20.0,-999,-99.99,,,-99.99,,2013-05-05 15:02:00,
2013-05-05 11:11:00,61.0,-99.9,30.04,ENE,59,11.0,18.0,-999,-99.99,,,-99.99,,2013-05-05 15:11:00,
2013-05-05 11:22:00,61.0,-99.9,30.04,ENE,67,11.0,17.0,-999,-99.99,,,-99.99,,2013-05-05 15:22:00,
2013-05-05 11:33:00,61.0,-99.9,30.04,ENE,61,12.0,20.0,-999,-99.99,,,-99.99,,2013-05-05 15:33:00,
2013-05-05 11:43:00,62.0,-99.9,30.04,ENE,66,15.0,21.0,-999,-99.99,,,-99.99,,2013-05-05 15:43:00,
2013-05-05 11:53:00,62.0,-99.9,30.04,NE,56,12.0,18.0,-999,-99.99,,,-99.99,,2013-05-05 15:53:00,
2013-05-05 12:03:00,62.0,-99.9,30.04,ENE,58,12.0,19.0,-999,-99.99,,,-99.99,,2013-05-05 16:03:00,
2013-05-05 12:12:00,62.0,-99.9,30.04,ENE,57,15.0,21.0,-999,-99.99,,,-99.99,,2013-05-05 16:12:00,
2013-05-05 12:23:00,62.0,-99.9,30.04,NE,55,14.0,18.0,-999,-99.99,,,-99.99,,2013-05-05 16:23:00,
2013-05-05 12:32:00,63.0,-99.9,30.04,ENE,70,13.0,19.0,-999,-99.99,,,-99.99,,2013-05-05 16:32:00,
2013-05-05 12:42:00,63.0,-99.9,30.04,ENE,65,13.0,18.0,-999,-99.99,,,-99.99,,2013-05-05 16:42:00,
2013-05-05 12:53:00,63.0,-99.9,30.04,ENE,65,14.0,21.0,-999,-99.99,,,-99.99,,2013-05-05 16:53:00,
2013-05-05 13:02:00,63.0,-99.9,30.04,ENE,60,15.0,20.0,-999,-99.99,,,-99.99,,2013-05-05 17:02:00,
2013-05-05 13:12:00,63.0,-99.9,30.03,ENE,58,14.0,20.0,-999,-99.99,,,-99.99,,2013-05-05 17:12:00,
2013-05-05 13:24:00,64.0,-99.9,30.02,ENE,61,13.0,20.0,-999,-99.99,,,-99.99,,2013-05-05 17:24:00,
2013-05-05 13:32:00,64.0,-99.9,30.02,ENE,64,15.0,22.0,-999,-99.99,,,-99.99,,2013-05-05 17:32:00,
2013-05-05 13:42:00,65.0,-99.9,30.02,ENE,64,15.0,22.0,-999,-99.99,,,-99.99,,2013-05-05 17:42:00,
2013-05-05 13:52:00,65.0,-99.9,30.03,ENE,67,14.0,22.0,-999,-99.99,,,-99.99,,2013-05-05 17:52:00,
2013-05-05 14:01:00,63.0,-99.9,30.03,ENE,58,14.0,20.0,-999,-99.99,,,-99.99,,2013-05-05 18:01:00,
2013-05-05 14:12:00,62.0,-99.9,30.03,ENE,62,13.0,19.0,-999,-99.99,,,-99.99,,2013-05-05 18:12:00,
2013-05-05 14:22:00,63.0,-99.9,30.03,ENE,69,13.0,16.0,-999,-99.99,,,-99.99,,2013-05-05 18:22:00,
2013-05-05 14:32:00,63.0,-99.9,30.03,ENE,68,13.0,16.0,-999,-99.99,,,-99.99,,2013-05-05 18:32:00,
2013-05-05 14:42:00,64.0,-99.9,30.03,ENE,58,12.0,19.0,-999,-99.99,,,-99.99,,2013-05-05 18:42:00,
2013-05-05 14:52:00,64.0,-99.9,30.03,ENE,71,14.0,20.0,-999,-99.99,,,-99.99,,2013-05-05 18:52:00,
2013-05-05 15:02:00,64.0,-99.9,30.03,ENE,65,16.0,23.0,-999,-99.99,,,-99.99,,2013-05-05 19:02:00,
2013-05-05 15:12:00,63.0,-99.9,30.02,ENE,68,16.0,21.0,-999,-99.99,,,-99.99,,2013-05-05 19:12:00,
2013-05-05 15:22:00,64.0,-99.9,30.03,ENE,65,12.0,19.0,-999,-99.99,,,-99.99,,2013-05-05 19:22:00,
2013-05-05 15:32:00,64.0,-99.9,30.02,ENE,64,17.0,22.0,-999,-99.99,,,-99.99,,2013-05-05 19:32:00,
2013-05-05 15:42:00,64.0,-99.9,30.02,ENE,64,17.0,21.0,-999,-99.99,,,-99.99,,2013-05-05 19:42:00,
2013-05-05 15:52:00,64.0,-99.9,30.02,ENE,63,16.0,22.0,-999,-99.99,,,-99.99,,2013-05-05 19:52:00,
2013-05-05 16:02:00,64.0,-99.9,30.02,ENE,60,12.0,17.0,-999,-99.99,,,-99.99,,2013-05-05 20:02:00,
2013-05-05 16:11:00,64.0,-99.9,30.02,ENE,60,12.0,17.0,-999,-99.99,,,-99.99,,2013-05-05 20:11:00,
2013-05-05 16:21:00,64.0,-99.9,30.01,ENE,60,16.0,20.0,-999,-99.99,,,-99.99,,2013-05-05 20:21:00,
2013-05-05 16:32:00,64.0,-99.9,30.02,ENE,64,13.0,22.0,-999,-99.99,,,-99.99,,2013-05-05 20:32:00,
2013-05-05 16:42:00,64.0,-99.9,30.01,ENE,68,17.0,22.0,-999,-99.99,,,-99.99,,2013-05-05 20:42:00,
2013-05-05 16:52:00,64.0,-99.9,30.02,ENE,66,16.0,21.0,-999,-99.99,,,-99.99,,2013-05-05 20:52:00,
2013-05-05 17:02:00,64.0,-99.9,30.01,ENE,57,13.0,20.0,-999,-99.99,,,-99.99,,2013-05-05 21:02:00,
2013-05-05 17:11:00,63.0,-99.9,30.02,ENE,60,15.0,21.0,-999,-99.99,,,-99.99,,2013-05-05 21:11:00,
2013-05-05 17:22:00,63.0,-99.9,30.02,ENE,64,14.0,22.0,-999,-99.99,,,-99.99,,2013-05-05 21:22:00,
2013-05-05 17:33:00,63.0,-99.9,30.02,NE,55,13.0,21.0,-999,-99.99,,,-99.99,,2013-05-05 21:33:00,
2013-05-05 17:42:00,62.0,-99.9,30.02,ENE,61,13.0,18.0,-999,-99.99,,,-99.99,,2013-05-05 21:42:00,
2013-05-05 17:53:00,63.0,-99.9,30.02,ENE,59,11.0,16.0,-999,-99.99,,,-99.99,,2013-05-05 21:53:00,
2013-05-05 18:03:00,63.0,-99.9,30.02,ENE,65,13.0,19.0,-999,-99.99,,,-99.99,,2013-05-05 22:03:00,
2013-05-05 18:12:00,63.0,-99.9,30.02,ENE,64,15.0,21.0,-999,-99.99,,,-99.99,,2013-05-05 22:12:00,
2013-05-05 18:23:00,63.0,-99.9,30.02,ENE,64,14.0,22.0,-999,-99.99,,,-99.99,,2013-05-05 22:23:00,
2013-05-05 18:34:00,62.0,-99.9,30.01,ENE,61,16.0,22.0,-999,-99.99,,,-99.99,,2013-05-05 22:34:00,
2013-05-05 18:42:00,62.0,-99.9,30.01,ENE,66,11.0,21.0,-999,-99.99,,,-99.99,,2013-05-05 22:42:00,
2013-05-05 18:52:00,62.0,-99.9,30.01,ENE,59,13.0,20.0,-999,-99.99,,,-99.99,,2013-05-05 22:52:00,
2013-05-05 19:02:00,62.0,-99.9,30.01,ENE,68,15.0,21.0,-999,-99.99,,,-99.99,,2013-05-05 23:02:00,
2013-05-05 19:12:00,62.0,-99.9,30.01,ENE,64,9.0,18.0,-999,-99.99,,,-99.99,,2013-05-05 23:12:00,
2013-05-05 19:22:00,62.0,-99.9,30.01,ENE,67,14.0,20.0,-999,-99.99,,,-99.99,,2013-05-05 23:22:00,
2013-05-05 19:32:00,62.0,-99.9,30.01,ENE,66,16.0,21.0,-999,-99.99,,,-99.99,,2013-05-05 23:32:00,
2013-05-05 19:42:00,62.0,-99.9,30.01,ENE,66,13.0,19.0,-999,-99.99,,,-99.99,,2013-05-05 23:42:00,
2013-05-05 19:52:00,62.0,-99.9,30.01,ENE,69,15.0,22.0,-999,-99.99,,,-99.99,,2013-05-05 23:52:00,
2013-05-05 20:01:00,62.0,-99.9,30.00,ENE,70,15.0,20.0,-999,-99.99,,,-99.99,,2013-05-06 00:01:00,
2013-05-05 20:11:00,62.0,-99.9,30.00,ENE,67,14.0,23.0,-999,-99.99,,,-99.99,,2013-05-06 00:11:00,
2013-05-05 20:22:00,62.0,-99.9,30.00,ENE,70,15.0,21.0,-999,-99.99,,,-99.99,,2013-05-06 00:22:00,
2013-05-05 20:32:00,62.0,-99.9,30.00,ENE,69,14.0,22.0,-999,-99.99,,,-99.99,,2013-05-06 00:32:00,
2013-05-05 20:42:00,62.0,-99.9,30.01,ENE,67,12.0,19.0,-999,-99.99,,,-99.99,,2013-05-06 00:42:00,
2013-05-05 20:52:00,62.0,-99.9,30.01,ENE,73,11.0,19.0,-999,-99.99,,,-99.99,,2013-05-06 00:52:00,
2013-05-05 21:01:00,62.0,-99.9,30.01,ENE,69,11.0,15.0,-999,-99.99,,,-99.99,,2013-05-06 01:01:00,
2013-05-05 21:11:00,62.0,-99.9,30.01,ENE,70,12.0,17.0,-999,-99.99,,,-99.99,,2013-05-06 01:11:00,
2013-05-05 21:21:00,62.0,-99.9,30.00,ENE,71,12.0,19.0,-999,-99.99,,,-99.99,,2013-05-06 01:21:00,
2013-05-05 21:32:00,62.0,-99.9,30.00,ENE,70,13.0,19.0,-999,-99.99,,,-99.99,,2013-05-06 01:32:00,
2013-05-05 21:42:00,62.0,-99.9,30.00,ENE,74,11.0,16.0,-999,-99.99,,,-99.99,,2013-05-06 01:42:00,
2013-05-05 21:52:00,62.0,-99.9,30.01,ENE,69,10.0,15.0,-999,-99.99,,,-99.99,,2013-05-06 01:52:00,
2013-05-05 22:02:00,62.0,-99.9,30.01,ENE,73,9.0,13.0,-999,-99.99,,,-99.99,,2013-05-06 02:02:00,
2013-05-05 22:12:00,62.0,-99.9,30.01,ENE,71,8.0,13.0,-999,-99.99,,,-99.99,,2013-05-06 02:12:00,
2013-05-05 22:21:00,61.0,-99.9,30.01,ENE,69,7.0,11.0,-999,-99.99,,,-99.99,,2013-05-06 02:21:00,
2013-05-05 22:32:00,61.0,-99.9,30.01,ENE,68,6.0,10.0,-999,-99.99,,,-99.99,,2013-05-06 02:32:00,
2013-05-05 22:42:00,61.0,-99.9,30.01,ENE,73,6.0,9.0,-999,-99.99,,,-99.99,,2013-05-06 02:42:00,
2013-05-05 22:52:00,61.0,-99.9,30.01,East,84,7.0,10.0,-999,-99.99,,,-99.99,,2013-05-06 02:52:00,
2013-05-05 23:02:00,62.0,-99.9,30.01,East,86,7.0,11.0,-999,-99.99,,,-99.99,,2013-05-06 03:02:00,
2013-05-05 23:11:00,62.0,-99.9,30.02,East,88,6.0,8.0,-999,-99.99,,,-99.99,,2013-05-06 03:11:00,
2013-05-05 23:22:00,63.0,-99.9,30.01,East,92,6.0,9.0,-999,-99.99,,,-99.99,,2013-05-06 03:22:00,
2013-05-05 23:33:00,62.0,-99.9,30.01,East,89,7.0,11.0,-999,-99.99,,,-99.99,,2013-05-06 03:33:00,
2013-05-05 23:43:00,62.0,-99.9,30.01,East,90,8.0,11.0,-999,-99.99,,,-99.99,,2013-05-06 03:43:00,
2013-05-05 23:53:00,63.0,-99.9,30.01,East,98,8.0,11.0,-999,-99.99,,,-99.99,,2013-05-06 03:53:00,